Change the Weather History Date:

Sunday, February 26, 2012

  Actual Average Record
Temperature  
Mean Temperature 30 °F 38 °F  
Max Temperature 39 °F 49 °F 70 °F (1986)
Min Temperature 20 °F 26 °F 8 °F (1993)
Degree Days  
Heating Degree Days 35 27  
Month to date heating degree days 773 788  
Cooling Degree Days 0 0  
Month to date cooling degree days 0 0  
Moisture  
Dew Point 14 °F    
Average Humidity 56    
Maximum Humidity 79    
Minimum Humidity 30    
Precipitation  
Precipitation 0.00 in 0.03 in 0.45 in (1957)
Month to date precipitation 0.14 0.79  
Sea Level Pressure  
Sea Level Pressure 30.19 in    
Wind  
Wind Speed 6 mph (NNW)    
Max Wind Speed 12 mph    
Max Gust Speed -    
Visibility 10 miles    
Events      
T = Trace of Precipitation, MM = Missing Value Source: NWS Daily Summary

Daily Weather History Graph

Daily Weather History Graph

Search for Another Location

Airport or City:

Trip Planner

Search our weather history database for the weather conditions in past years. The results will help you decide how hot, cold, wet, or windy it might be!

Date:

Astronomy

Feb. 26, 2012 Rise Set
Actual Time 7:25 AM MST 6:28 PM MST
Civil Twilight 6:56 AM MST 6:57 PM MST
Nautical Twilight 6:23 AM MST 7:30 PM MST
Astronomical Twilight 5:50 AM MST 8:02 PM MST
Moon 9:13 AM MST (2/26) 11:40 PM MST (2/26)
Length of Visible Light 12h 00m
Length of Day
11h 03m
Waxing Crescent, 21% of the Moon is Illuminated
Feb 26
Waxing Crescent
Feb 29
First Quarter
Mar 8
Full
Mar 14
Last Quarter
Mar 22
New

Hourly Weather History & Observations

Time (MST) Temp. Windchill Dew Point Humidity Pressure Visibility Wind Dir Wind Speed Gust Speed Precip Events Conditions
12:37 AM 32.0 °F 23.6 °F 14.0 °F 48% 30.20 in 10.0 mi West 10.4 mph - N/A   Overcast
12:55 AM 30.2 °F 21.3 °F 14.2 °F 51% 30.20 in 10.0 mi West 10.4 mph - N/A   Mostly Cloudy
1:55 AM 28.2 °F 20.2 °F 15.6 °F 59% 30.23 in 10.0 mi West 8.1 mph - N/A   Partly Cloudy
2:02 AM 28.4 °F 20.4 °F 15.8 °F 59% 30.23 in 10.0 mi West 8.1 mph - N/A   Mostly Cloudy
2:55 AM 28.2 °F 18.3 °F 15.8 °F 60% 30.24 in 10.0 mi West 11.5 mph - N/A   Mostly Cloudy
3:55 AM 26.2 °F 22.1 °F 15.3 °F 63% 30.24 in 10.0 mi NNW 3.5 mph - N/A   Overcast
4:18 AM 24.8 °F 17.9 °F 15.8 °F 69% 30.25 in 10.0 mi NNW 5.8 mph - N/A   Scattered Clouds
4:45 AM 24.8 °F 16.9 °F 14.0 °F 64% 30.26 in 10.0 mi NW 6.9 mph - N/A   Mostly Cloudy
4:55 AM 24.4 °F 16.5 °F 14.7 °F 67% 30.26 in 10.0 mi NW 6.9 mph - N/A   Mostly Cloudy
4:57 AM 24.8 °F 17.9 °F 15.8 °F 69% 30.25 in 10.0 mi NNW 5.8 mph - N/A   Mostly Cloudy
5:22 AM 23.0 °F 14.7 °F 15.8 °F 74% 30.26 in 10.0 mi NNW 6.9 mph - N/A   Mostly Cloudy
5:55 AM 24.1 °F 17.0 °F 15.1 °F 69% 30.27 in 10.0 mi NNW 5.8 mph - N/A   Overcast
6:55 AM 21.9 °F 15.7 °F 16.3 °F 79% 30.27 in 10.0 mi NW 4.6 mph - N/A   Mostly Cloudy
7:25 AM 23.0 °F - 14.0 °F 68% 30.28 in 10.0 mi Calm Calm - N/A   Scattered Clouds
7:55 AM 20.7 °F - 13.5 °F 74% 30.28 in 10.0 mi Calm Calm - N/A   Partly Cloudy
8:19 AM 23.0 °F - 15.8 °F 74% 30.28 in 10.0 mi Calm Calm - N/A   Mostly Cloudy
8:55 AM 28.4 °F 23.3 °F 16.3 °F 61% 30.27 in 10.0 mi SE 4.6 mph - N/A   Overcast
9:14 AM 30.2 °F 25.4 °F 14.0 °F 51% 30.27 in 10.0 mi ESE 4.6 mph - N/A   Scattered Clouds
9:55 AM 31.1 °F - 14.0 °F 49% 30.27 in 10.0 mi Calm Calm - N/A   Clear
10:55 AM 32.2 °F - 13.3 °F 46% 30.25 in 10.0 mi Calm Calm - N/A   Clear
11:55 AM 35.2 °F - 11.1 °F 37% 30.23 in 10.0 mi Calm Calm - N/A   Clear
12:55 PM 36.0 °F - 11.5 °F 36% 30.20 in 10.0 mi Calm Calm - N/A   Clear
1:55 PM 38.3 °F - 11.1 °F 33% 30.16 in 10.0 mi Calm Calm - N/A   Scattered Clouds
2:55 PM 37.6 °F 33.1 °F 9.0 °F 31% 30.14 in 10.0 mi NNW 5.8 mph - N/A   Mostly Cloudy
3:55 PM 37.2 °F 33.6 °F 8.4 °F 30% 30.13 in 10.0 mi Variable 4.6 mph - N/A   Scattered Clouds
4:55 PM 37.2 °F 32.6 °F 8.6 °F 31% 30.11 in 10.0 mi ENE 5.8 mph - N/A   Clear
5:55 PM 36.3 °F 28.9 °F 9.9 °F 33% 30.08 in 10.0 mi ENE 10.4 mph - N/A   Scattered Clouds
6:55 PM 33.3 °F 26.4 °F 11.8 °F 41% 30.08 in 10.0 mi ENE 8.1 mph - N/A   Clear
7:55 PM 30.6 °F 23.1 °F 14.5 °F 51% 30.08 in 10.0 mi NE 8.1 mph - N/A   Scattered Clouds
8:55 PM 28.8 °F 21.7 °F 16.7 °F 61% 30.05 in 10.0 mi NE 6.9 mph - N/A   Scattered Clouds
9:55 PM 27.9 °F 22.6 °F 15.8 °F 61% 30.04 in 10.0 mi ENE 4.6 mph - N/A   Clear
10:55 PM 25.3 °F 19.7 °F 16.5 °F 69% 30.03 in 10.0 mi WNW 4.6 mph - N/A   Clear
11:55 PM 27.1 °F 20.7 °F 17.1 °F 66% 30.01 in 10.0 mi WNW 5.8 mph - N/A   Partly Cloudy